Location: Buffign�court
(47.8126°N, 6.0176°E)
Time: 20:03:48
(UTC+00:00)

Cosmos 2369 Rocket - Pass Details

Date: 16 June 2021
Orbit: 828 x 854 km, 71.0° (Epoch: 02 August)

Event Time Altitude Azimuth Distance (km) Brightness Sun altitude
Rises 23:29:26 0° 336° (NNW) 3,433 6.6 -18.8°
Reaches altitude 10° 23:32:13 10° 348° (NNW) 2,495 5.8 -18.8°
Maximum altitude 23:37:12 30° 48° (NE) 1,503 3.9 -18.8°
Drops below altitude 10° 23:42:09 10° 108° (ESE) 2,481 4.5 -18.8°
Enters shadow 23:44:12 - 117° (ESE) 3,161 4.9 -18.8°
